Flag for West Bank Weather past 2 weeks in Nablus, West Bank

Now
88 °F

Scattered clouds.


Feels Like: 94 °F
Forecast: 66 / 85 °F
Wind: 13 mph from West

Location: Ben Gurion International Airport

Current Time: Aug 28, 2014 at 12:16:56 PM

Latest Report: Aug 28, 2014 at 11:50 AM


Visibility: N/A

Pressure: 29.74 "Hg

Humidity: 59%

Dew point: 72 °F

Location of NablusLocation

Historic Weather in Nablus — Graph

°F

Nablus temperature yesterday

Maximum temperature yesterday: 91 °F (at 1:20 PM)
Minimum temperature yesterday: 73 °F (at 6:20 AM)
Average temperature yesterday: 83 °F

Past Weeks' High & Low Weather Summary

 TemperatureHumidityPressure
High93 °F (Aug 14, 11:20 AM)89% (Aug 14, 5:50 AM)29.95 "Hg (Aug 14, 5:50 AM)
Low73 °F (Aug 26, 5:20 AM)46% (Aug 20, 11:20 AM)29.62 "Hg (Aug 17, 1:20 PM)
Average83 °F68%29.77 "Hg
* Reported Aug 13 11:20 AM — Aug 28 11:20 AM, Nablus, Weather by CustomWeather, © 2014

Note: Actual official high and low records may vary slightly from our data, if they occured in-between our weather recording intervals... More about our weather records

Advertising

Nablus weather history for previous 24 hours

 ConditionsComfort  
Time TempWeatherWind HumidityBarometerVisibility
11:20 AM
Aug 28
90 °FScattered clouds.6 mph52%29.74 "HgN/A
10:50 AM88 °FScattered clouds.7 mph55%29.74 "HgN/A
10:20 AM88 °FScattered clouds.6 mph55%29.77 "HgN/A
9:50 AM84 °FScattered clouds.6 mph62%29.77 "HgN/A
9:20 AM84 °FScattered clouds.3 mph66%29.77 "HgN/A
8:50 AM82 °FPassing clouds.5 mph66%29.74 "HgN/A
8:20 AM82 °FSunny.3 mph66%29.74 "Hg10 mi
7:50 AM81 °FSunny.7 mph66%29.74 "Hg10 mi
7:20 AM79 °FSunny.5 mph70%29.74 "Hg10 mi
6:50 AM77 °FPassing clouds.5 mph74%29.74 "HgN/A
6:20 AM77 °FPassing clouds.5 mph74%29.74 "HgN/A
5:50 AM77 °FPassing clouds.6 mph69%29.74 "HgN/A
5:20 AM77 °FPassing clouds.6 mph69%29.74 "HgN/A
4:50 AM77 °FClear.3 mph69%29.74 "Hg10 mi
4:20 AM77 °FClear.5 mph69%29.74 "Hg10 mi
3:50 AM77 °FClear.5 mph69%29.71 "Hg10 mi
3:20 AM77 °FClear.5 mph74%29.74 "Hg10 mi
2:50 AM75 °FClear.2 mph78%29.74 "Hg10 mi
2:20 AM77 °FClear.5 mph79%29.74 "Hg10 mi
1:50 AM77 °FClear.7 mph79%29.74 "Hg10 mi
1:20 AM79 °FClear.8 mph74%29.74 "Hg10 mi
12:50 AM79 °FClear.6 mph74%29.74 "Hg10 mi
12:20 AM79 °FClear.5 mph74%29.74 "Hg10 mi
11:50 PM
Aug 27
81 °FClear.5 mph70%29.74 "Hg10 mi
11:20 PM81 °FClear.2 mph74%29.74 "Hg10 mi
10:50 PM81 °FPassing clouds.2 mph74%29.74 "HgN/A
10:20 PM81 °FPassing clouds.2 mph74%29.74 "HgN/A
9:50 PM81 °FClear.2 mph74%29.74 "Hg10 mi
9:20 PM82 °FClear.3 mph70%29.74 "Hg10 mi
8:50 PM82 °FClear.3 mph70%29.74 "Hg10 mi
8:20 PM82 °FPassing clouds.5 mph70%29.74 "HgN/A
7:20 PM82 °FPassing clouds.5 mph70%29.74 "HgN/A
6:50 PM84 °FPassing clouds.8 mph66%29.74 "HgN/A
5:50 PM86 °FSunny.10 mph62%29.74 "Hg10 mi
5:20 PM88 °FSunny.13 mph59%29.74 "Hg10 mi
4:50 PM90 °FSunny.12 mph52%29.74 "Hg10 mi
4:20 PM90 °FSunny.13 mph52%29.74 "Hg10 mi
3:50 PM90 °FSunny.14 mph52%29.74 "Hg10 mi
3:20 PM90 °FSunny.13 mph52%29.74 "Hg10 mi
2:50 PM91 °FPassing clouds.12 mph46%29.74 "HgN/A
2:20 PM91 °FPassing clouds.12 mph49%29.77 "HgN/A
1:20 PM91 °FPassing clouds.10 mph49%29.77 "HgN/A
12:50 PM90 °FPassing clouds.10 mph55%29.77 "HgN/A
12:20 PM90 °FPassing clouds.9 mph55%29.77 "HgN/A
Weather by CustomWeather, © 2014

See weather overviewHow to use our weather pages